Sidney, NE

8:21 PM MDT on May 27, 2017 (GMT -0600)
Sidney Municipal

Weather History for KSNY - June, 2014

Change the Weather History Date:

Friday, June 20, 2014

  Actual Average Record
Temperature  
Mean Temperature 70 °F 69 °F  
Max Temperature 86 °F 84 °F 103 °F (1989)
Min Temperature 53 °F 55 °F 38 °F (2000)
Degree Days  
Heating Degree Days 0 1  
Month to date heating degree days 54 51  
Since 1 June heating degree days 54 51  
Since 1 July heating degree days 6629 6213  
Cooling Degree Days 5 5  
Month to date cooling degree days 36 67  
Year to date cooling degree days 52 89  
Since 1 June cooling degree days 36 67  
Growing Degree Days 20 (Base 50)    
Moisture  
Dew Point 55 °F    
Average Humidity 57    
Maximum Humidity 86    
Minimum Humidity 27    
Precipitation  
Precipitation 0.00 in 0.10 in 1.06 in (1960)
Month to date precipitation 1.91 2.22  
Year to date precipitation 6.91 8.98  
Sea Level Pressure  
Sea Level Pressure 29.92 in    
Wind  
Wind Speed 6 mph (ESE)    
Max Wind Speed 14 mph    
Max Gust Speed 31 mph    
Visibility 10 miles    
Events      
T = Trace of Precipitation, MM = Missing Value Source: NWS Daily Summary

Daily Weather History Graph

Daily Weather History Graph

Search for Another Location

Airport or City:

Trip Planner

Search our weather history database for the weather conditions in past years. The results will help you decide how hot, cold, wet, or windy it might be!

Date:

Astronomy

Jun. 20, 2014 Rise Set
Actual Time 5:19 AM MDT 8:27 PM MDT
Civil Twilight 4:45 AM MDT 9:01 PM MDT
Nautical Twilight 4:02 AM MDT 9:44 PM MDT
Astronomical Twilight 3:11 AM MDT 10:36 PM MDT
Moon 1:02 AM MDT (6/20) 2:02 PM MDT (6/20)
Length of Visible Light 16h 15m
Length of Day
15h 08m
Last Quarter, 39% of the Moon is Illuminated
Jun 20
Last Quarter
Jun 27
New
Jul 5
First Quarter
Jul 12
Full
Jul 18
Last Quarter

Hourly Weather History & Observations

Time (MDT) Temp. Heat Index Dew Point Humidity Pressure Visibility Wind Dir Wind Speed Gust Speed Precip Events Conditions
12:53 AM 57.0 °F - 51.1 °F 81% 29.99 in 10.0 mi South 9.2 mph - N/A   Clear
1:53 AM 57.9 °F - 51.1 °F 78% 29.99 in 10.0 mi South 10.4 mph - N/A   Clear
2:53 AM 57.0 °F - 51.1 °F 81% 29.99 in 10.0 mi South 8.1 mph - N/A   Clear
3:53 AM 55.9 °F - 51.1 °F 84% 29.98 in 10.0 mi SSW 8.1 mph - N/A   Partly Cloudy
4:53 AM 55.0 °F - 51.1 °F 86% 29.99 in 10.0 mi SSW 8.1 mph - N/A   Clear
5:53 AM 55.9 °F - 52.0 °F 87% 29.98 in 10.0 mi SSW 5.8 mph - N/A   Clear
6:53 AM 63.0 °F - 55.9 °F 78% 29.98 in 10.0 mi WSW 4.6 mph - N/A   Partly Cloudy
7:53 AM 64.9 °F - 55.9 °F 73% 29.99 in 10.0 mi NNW 11.5 mph - N/A   Clear
10:53 AM 78.1 °F - 57.9 °F 50% 29.97 in 10.0 mi North 4.6 mph - N/A   Clear
11:53 AM 82.0 °F 81.6 °F 55.9 °F 41% 29.95 in 10.0 mi North 10.4 mph - N/A   Clear
12:53 PM 82.9 °F - 50.0 °F 32% 29.94 in 10.0 mi NE 10.4 mph 16.1 mph N/A   Clear
1:53 PM 84.0 °F - 46.0 °F 26% 29.92 in 10.0 mi Variable 3.5 mph - N/A   Clear
2:53 PM 84.9 °F - 51.1 °F 31% 29.89 in 10.0 mi Variable 3.5 mph - N/A   Clear
3:53 PM 84.0 °F 82.5 °F 53.1 °F 34% 29.88 in 10.0 mi Calm Calm - N/A   Clear
4:53 PM 84.9 °F 84.8 °F 60.1 °F 43% 29.87 in 10.0 mi East 10.4 mph - N/A   Mostly Cloudy
5:53 PM 82.9 °F 83.3 °F 61.0 °F 47% 29.87 in 10.0 mi SE 10.4 mph - N/A   Clear
6:53 PM 81.0 °F 81.7 °F 61.0 °F 50% 29.83 in 10.0 mi East 4.6 mph - N/A   Clear
7:53 PM 77.0 °F - 62.1 °F 60% 29.83 in 10.0 mi East 3.5 mph - N/A   Clear
8:53 PM 70.0 °F - 60.1 °F 71% 29.85 in 10.0 mi East 3.5 mph - N/A   Clear
9:53 PM 62.1 °F - 57.9 °F 86% 29.88 in 5.0 mi NE 3.5 mph - N/A   Clear
10:53 PM 60.1 °F - 55.9 °F 86% 29.86 in 10.0 mi ENE 3.5 mph - N/A   Clear
11:53 PM 61.0 °F - 55.0 °F 81% 29.84 in 10.0 mi Calm Calm - N/A   Clear